Location: Malvern Link
(52.1333°N, 2.3000°W)
Time: 12:26:26
(UTC+00:00)

METEOR 2-7 DEB - Visible Passes

Search period start: 04 December 2022 00:00
Search period end: 14 December 2022 00:00
Orbit: 783 x 839 km, 81.3° (Epoch: 01 December)

Date Brightness Start Highest point End Pass type
(mag) Time Alt. Az. Time Alt. Az. Time Alt. Az.
11 Dec ? 19:44:10 10° N 19:44:30 12° N 19:44:30 12° N visible
12 Dec ? 19:20:20 10° N 19:21:07 14° N 19:21:07 14° N visible
13 Dec ? 18:56:33 10° N 18:57:48 17° N 18:57:48 17° N visible
13 Dec ? 20:38:47 10° NNW 20:39:00 11° NNW 20:39:00 11° NNW visible
